Lapse_Rate
5.4 6.0 6.8 6.2 6.5 6.5 6.5 6.0 5.5 5.5 5.5 5.6 5.7 5.8 5.9 5.9 6.2 6.4 6.7 6.5 6.6 6.5 6.4 6.5 6.3 6.3 6.3 6.3 6.3 6.0 6.1 6.2 6.8 7.0 6.6 6.4 6.5 6.5 6.5 7.1 7.5 9.0 6.7
5.2 5.2 6.1 6.1 6.4 6.4 6.3 5.8 5.5 5.4 5.6 5.8 5.8 6.0 6.0 6.2 6.3 6.6 6.6 6.7 6.8 6.9 6.7 6.6 6.5 6.6 6.6 6.8 6.9 6.5 6.7 6.7 6.5 6.7 6.7 6.6 6.4 6.6 6.6 7.3 8.4 6.4 6.9
5.1 5.0 7.2 6.1 6.4 6.3 6.1 5.7 5.6 5.7 5.7 5.8 6.1 6.1 6.4 6.9 6.6 6.7 6.8 6.8 6.6 6.8 6.8 6.6 6.5 6.6 6.8 7.0 7.1 6.9 6.7 6.7 6.4 7.1 7.4 9.0 8.7 6.8 7.0 6.7 6.5 6.3 6.8
5.5 8.3 9.4 5.7 6.3 6.2 5.9 5.8 5.9 5.8 5.6 5.9 6.0 6.1 6.6 6.5 6.8 7.0 6.9 6.7 6.6 6.6 6.7 6.6 6.5 6.7 6.9 7.0 7.1 6.9 6.6 6.5 6.6 7.3 7.7 9.3 9.6 6.4 7.0 6.7 6.5 6.6 6.6
6.9 8.9 8.3 5.8 6.3 6.2 5.9 5.8 5.8 5.7 5.7 5.9 6.0 6.2 6.2 6.5 6.9 7.1 7.1 6.7 6.5 6.6 6.8 6.8 6.8 6.8 7.0 7.2 7.0 6.7 6.7 6.4 7.0 8.0 8.9 8.7 9.0 6.5 6.5 6.6 6.6 6.6 7.5
8.9 9.6 5.7 6.2 6.4 6.1 5.8 5.7 5.7 5.8 5.9 6.0 6.0 6.1 6.4 7.3 7.2 7.0 6.7 6.5 6.5 6.7 6.8 6.8 6.9 7.0 7.1 7.0 7.1 7.0 6.9 6.8 6.6 7.8 9.4 8.6 8.7 6.6 6.9 7.2 6.9 6.7 6.5
10.1 9.5 7.9 6.2 6.3 5.9 5.8 5.8 5.8 5.9 5.9 5.9 6.0 6.2 6.4 6.6 6.6 6.7 6.5 6.6 6.7 6.8 6.9 7.0 6.9 6.8 6.6 7.0 6.9 7.1 7.2 7.2 9.2 8.7 9.0 9.6 6.8 6.5 7.0 6.8 6.8 6.4 6.6
9.2 9.8 9.0 6.3 6.5 5.9 5.9 5.8 6.0 5.9 5.8 6.0 6.1 6.2 6.4 6.3 6.4 6.5 6.6 6.8 6.9 6.9 7.0 7.0 7.0 6.8 6.6 6.7 6.2 6.5 7.1 7.3 8.9 9.6 8.1 9.3 6.1 6.7 6.8 6.7 6.4 6.5 6.4
9.8 10.0 9.5 9.1 7.3 6.2 5.9 5.8 5.9 5.8 5.9 6.0 6.2 6.3 6.3 6.3 6.3 6.4 6.4 6.7 6.8 6.8 6.9 6.8 6.7 6.8 6.5 6.3 6.2 6.0 6.2 7.1 9.0 9.4 9.5 8.2 6.1 6.8 6.6 6.5 6.6 6.5 6.5
9.8 10.2 9.8 9.6 9.4 9.3 7.3 5.9 5.9 5.9 6.0 6.1 6.3 6.3 6.2 6.2 6.2 6.3 6.2 6.5 6.6 6.7 6.6 6.7 6.6 6.3 6.1 5.9 5.9 5.7 6.0 6.4 7.4 9.6 9.6 7.1 6.2 6.6 6.6 6.4 6.7 6.3 6.4
9.6 10.1 10.2 10.0 9.6 9.5 9.5 7.4 5.9 5.9 5.9 6.1 6.5 6.0 6.9 8.0 8.6 7.7 6.5 6.7 6.6 6.4 6.4 6.5 6.2 6.5 6.6 5.9 5.2 5.7 6.2 6.5 9.6 8.7 8.9 5.1 6.3 7.0 6.9 6.7 6.3 6.2 6.1
9.2 9.9 10.1 10.0 9.9 9.6 9.7 7.9 9.3 9.2 9.3 9.2 8.9 7.5 5.9 8.3 8.7 9.2 7.2 6.4 6.4 6.3 6.4 6.5 6.6 6.7 6.7 8.9 8.1 6.0 6.0 8.4 9.6 9.2 7.7 5.5 6.1 6.8 7.0 6.9 6.4 6.2 6.0
9.6 9.8 10.0 9.8 9.6 9.7 9.7 9.5 9.6 9.6 9.6 9.6 9.5 9.3 7.6 9.1 9.1 7.1 8.4 8.8 8.1 6.9 7.9 6.0 7.1 8.3 9.6 9.5 9.7 8.4 8.5 9.5 9.6 8.7 5.7 5.5 6.0 6.8 7.4 6.7 6.5 6.3 6.3
9.3 9.6 9.9 9.9 9.8 9.7 9.7 9.8 9.7 9.8 9.7 9.7 9.6 8.4 8.8 8.1 9.3 5.3 6.9 8.9 9.2 8.8 8.4 6.5 7.9 9.1 6.9 8.0 8.4 9.8 9.8 9.0 9.5 9.2 5.7 5.4 6.4 6.5 6.9 7.2 6.7 6.7 6.5
9.4 9.6 9.7 9.7 9.6 9.6 9.6 9.7 9.8 9.8 9.8 9.8 9.6 9.3 9.5 7.4 8.9 7.6 8.9 9.1 9.1 7.9 8.2 8.6 9.4 9.0 9.3 7.9 9.3 9.1 9.7 9.8 9.7 8.5 7.7 5.2 5.8 6.5 6.6 6.8 6.8 6.7 6.5
9.3 9.5 9.7 9.7 9.7 9.6 9.7 9.6 9.7 9.7 9.7 9.7 9.7 9.6 8.4 9.3 9.1 8.6 8.7 7.7 8.4 7.2 7.5 9.3 9.3 7.0 7.0 9.0 9.0 9.1 9.7 9.7 9.1 9.4 8.1 6.1 5.2 5.7 6.5 6.7 6.5 6.4 6.2
9.5 9.5 9.5 9.6 9.9 9.6 9.6 9.6 9.6 9.7 9.7 9.8 9.8 9.6 9.6 8.5 8.6 8.5 8.6 7.5 7.9 8.0 8.8 8.3 9.4 7.8 8.4 9.6 9.5 9.7 9.1 9.3 9.6 9.7 8.8 8.6 6.3 5.3 5.9 6.6 6.8 6.7 6.5
9.4 9.2 9.5 10.0 9.8 9.7 9.7 9.7 9.7 9.7 9.8 9.8 9.8 9.6 9.1 8.4 8.4 9.0 9.7 9.4 8.7 8.7 9.7 7.7 9.4 9.6 8.5 9.7 9.6 9.7 9.7 9.7 9.7 9.7 9.7 8.1 7.7 8.3 5.8 5.9 6.4 6.7 6.7
9.4 9.3 9.4 9.6 9.6 9.6 9.7 9.7 9.7 9.6 9.8 9.8 9.8 9.7 8.6 8.5 8.1 8.7 5.0 5.9 8.8 8.2 8.5 9.7 7.6 8.8 9.3 9.5 9.6 9.7 9.6 9.7 9.2 9.8 9.7 9.4 9.1 8.8 9.1 6.1 6.0 6.3 6.7
9.4 9.4 9.5 9.7 9.5 9.4 9.7 9.6 9.8 9.9 9.9 9.7 9.8 9.8 9.0 9.1 8.6 8.6 8.8 9.1 9.0 8.8 7.1 6.7 8.5 9.6 9.2 9.4 9.7 9.5 9.6 9.8 9.8 9.8 9.8 9.5 9.6 9.6 7.8 8.3 7.0 7.2 6.8
9.4 9.2 9.4 9.3 9.1 9.5 9.4 9.4 9.5 9.4 9.6 9.8 9.9 9.6 9.6 9.6 9.5 9.4 9.3 9.2 9.0 8.3 8.9 9.4 9.2 8.6 9.0 9.3 9.2 9.2 9.4 9.7 9.6 9.8 9.9 9.7 9.8 9.4 9.7 9.5 8.6 7.7 6.9
9.2 9.3 9.2 9.3 9.1 9.2 9.5 9.4 9.5 9.5 9.7 9.8 9.8 9.5 9.6 9.6 9.5 9.4 9.2 7.7 9.1 6.7 7.9 8.1 8.5 7.0 9.4 9.6 8.8 8.8 8.2 8.9 9.5 9.7 9.8 9.8 9.7 9.8 9.7 9.7 9.7 8.4 7.7
9.1 9.2 9.2 9.1 9.1 8.9 9.0 9.5 9.5 9.5 9.3 9.5 9.6 9.7 9.7 9.5 9.5 9.2 9.2 8.9 9.5 8.7 7.1 8.4 8.9 8.9 9.0 9.3 8.3 8.7 7.8 5.9 8.6 9.4 9.2 9.6 9.5 9.8 9.7 9.7 9.6 9.6 8.9
9.2 9.4 9.2 9.1 9.0 8.9 8.5 9.0 8.6 9.0 8.9 9.4 9.4 9.7 9.6 9.5 9.5 9.4 9.5 9.5 9.1 9.3 7.0 8.8 9.5 9.2 8.2 8.9 9.2 9.5 8.5 7.9 5.7 6.5 9.0 9.3 9.5 9.6 9.7 9.8 9.6 9.7 9.6
9.2 9.3 9.5 8.9 8.8 8.9 8.6 8.1 9.1 8.7 9.3 9.5 9.6 8.8 8.6 8.3 9.4 9.6 9.4 9.5 9.2 8.9 8.8 7.4 8.8 7.8 9.3 8.9 9.2 9.1 9.0 9.1 9.0 8.1 5.9 7.1 9.3 9.6 9.7 9.4 9.8 9.2 9.4
9.3 9.3 9.5 9.0 8.4 8.5 8.6 7.4 8.6 8.3 8.5 9.1 9.0 9.2 9.5 9.7 9.5 9.4 9.5 9.2 8.2 9.2 9.4 9.0 9.0 8.9 8.2 9.3 9.2 9.3 9.1 8.8 8.7 8.6 8.4 8.2 8.2 7.3 9.6 9.8 9.8 9.7 9.7
Wind_Speed
7 7 6 7 11 14 16 16 17 16 15 14 14 14 15 14 15 16 14 14 12 11 12 11 11 11 10 11 11 10 9 9 11 10 11 11 10 7 4 1 8 17 13
8 7 8 9 13 15 16 16 17 16 15 14 14 14 14 14 13 14 13 13 11 10 11 10 10 9 9 8 9 10 9 8 8 9 12 13 9 6 7 7 18 16 13
10 10 14 12 14 15 16 17 16 16 15 14 14 13 12 13 14 12 12 12 11 10 10 9 8 7 7 7 7 9 8 7 6 6 6 5 12 7 8 12 16 14 13
16 18 18 12 15 16 16 16 16 15 14 13 13 11 12 13 11 11 11 11 10 10 9 8 7 6 6 5 7 8 8 5 1 2 6 3 14 8 7 12 13 12 12
19 18 21 15 16 16 16 16 15 14 13 12 12 11 12 10 9 10 11 10 10 9 8 8 7 6 5 5 5 6 6 2 4 2 6 7 6 11 7 9 10 9 8
18 22 21 17 17 17 16 15 15 14 12 11 11 11 11 9 9 10 10 9 9 9 9 8 8 7 7 7 5 6 5 4 7 12 12 12 19 12 8 9 12 11 11
18 22 22 19 19 18 16 15 14 13 12 11 10 10 10 9 8 8 8 9 8 8 8 8 7 8 9 8 7 7 6 5 3 18 9 13 14 10 10 10 11 10 10
18 24 24 20 19 17 16 14 13 12 11 10 10 9 9 8 7 8 8 8 7 7 7 7 7 8 8 9 8 7 5 5 1 7 13 15 13 11 11 11 11 10 10
21 22 22 22 19 17 15 13 12 11 10 9 9 8 8 8 7 7 7 7 6 6 5 6 5 4 6 7 8 6 4 5 2 6 12 15 12 9 10 10 11 9 10
18 19 20 22 20 18 16 13 12 10 9 8 8 7 8 9 9 9 8 7 5 4 4 4 2 4 6 10 10 9 9 9 11 8 12 15 12 10 9 10 10 9 9
15 19 19 20 19 17 16 14 11 9 8 8 9 11 11 6 9 15 10 6 4 1 1 2 6 7 9 10 15 14 10 11 1 11 15 16 11 9 10 9 10 9 8
18 20 18 17 17 17 17 15 12 12 13 13 12 11 17 8 10 7 11 7 7 5 8 8 6 9 13 13 13 12 12 7 9 14 15 14 10 9 10 10 10 10 9
20 16 18 17 17 16 13 14 12 12 12 7 3 4 9 9 4 5 7 11 10 11 8 10 8 5 11 14 10 14 12 9 10 18 15 11 8 8 9 10 9 9 8
16 17 17 17 13 15 13 12 13 10 8 8 10 3 2 5 2 15 10 10 4 6 3 11 6 15 16 12 8 7 3 13 6 17 15 11 7 6 8 10 10 9 8
20 18 17 15 12 10 8 11 9 7 8 9 8 9 8 7 3 11 4 3 5 10 5 4 6 1 5 2 6 11 5 3 5 15 14 14 10 8 9 9 11 10 9
20 19 18 16 14 13 10 7 6 9 9 7 9 10 5 6 3 2 1 6 3 12 7 4 3 4 8 3 2 9 5 6 2 5 17 14 14 11 8 10 10 11 10
18 18 18 17 16 14 13 11 10 10 11 9 7 7 6 6 5 3 2 4 3 8 1 3 0 6 6 8 5 2 6 4 4 3 14 15 14 13 12 8 10 11 11
19 19 17 16 18 16 13 12 12 12 11 9 9 10 9 8 4 4 3 2 6 3 2 3 1 2 5 1 3 4 5 4 5 4 6 9 14 14 12 12 9 8 7
19 18 18 18 17 17 13 12 13 12 10 10 10 10 13 10 8 7 7 10 1 5 2 2 2 1 3 4 6 4 7 4 3 8 3 10 11 13 11 13 12 8 7
20 19 18 16 14 14 11 9 10 9 9 12 11 11 14 11 10 8 5 7 2 1 1 5 6 4 4 4 6 4 4 2 1 6 7 9 5 5 18 12 12 11 7
21 20 18 17 15 12 12 12 11 11 9 9 10 11 11 11 12 9 6 6 6 3 3 3 5 5 3 3 5 6 5 2 3 3 4 6 5 16 2 7 11 11 9
22 20 18 17 15 13 12 9 10 9 9 9 10 10 13 14 12 10 7 1 5 4 6 2 3 5 2 3 4 6 6 5 6 2 5 5 5 8 8 2 7 10 13
23 20 19 18 16 16 14 10 8 8 7 9 9 9 11 15 14 12 10 8 5 6 7 7 5 5 2 3 7 5 2 3 7 4 2 7 2 5 6 6 8 3 11
23 21 19 19 17 16 16 13 13 12 11 10 10 10 11 16 14 13 11 10 7 7 9 5 5 4 4 6 4 4 5 6 4 2 5 6 4 3 4 4 10 9 5
23 22 20 20 18 17 17 16 13 13 11 10 10 11 10 10 14 15 13 11 8 8 6 7 4 5 4 5 5 4 2 2 1 2 3 3 7 6 7 3 1 11 8
22 22 20 20 19 18 18 19 15 16 13 12 12 10 10 10 11 11 14 10 11 8 6 7 7 7 7 4 4 3 4 5 6 5 5 7 7 4 5 6 5 7 9
Wind_Direction
190 191 165 126 113 127 128 123 123 119 114 111 101 96 88 81 75 75 79 80 87 92 92 95 88 85 83 77 73 69 73 80 89 96 105 99 95 100 92 118 164 103 106
150 194 183 144 135 131 130 125 122 117 115 107 102 95 90 87 80 78 78 86 91 95 99 91 91 90 88 83 79 80 85 88 101 133 129 111 94 88 54 42 79 105 108
167 179 161 149 143 136 130 125 124 119 112 108 102 98 98 90 82 84 86 84 83 86 86 91 93 94 95 90 87 84 95 98 142 140 163 120 96 85 72 82 90 101 108
167 181 150 145 142 132 131 129 124 120 116 108 105 101 89 84 86 85 92 88 88 86 86 94 99 103 104 102 95 94 92 105 124 81 255 100 96 93 92 87 92 109 106
180 187 135 148 141 133 133 129 126 122 114 109 107 99 91 89 85 74 82 83 82 83 89 90 92 95 95 92 107 100 101 162 228 131 72 27 86 103 105 119 124 113 99
174 156 140 151 146 140 137 132 128 125 121 115 110 108 104 94 82 77 79 82 83 81 81 80 73 75 73 88 98 134 137 232 269 182 101 51 74 105 110 108 94 96 97
143 139 149 155 145 141 139 135 133 132 127 122 118 115 109 101 90 79 80 81 79 80 78 79 77 72 70 83 79 115 164 233 312 117 104 98 97 100 103 105 107 105 110
168 147 140 144 140 141 142 139 137 138 132 131 126 120 111 106 96 84 80 79 83 80 82 79 75 79 85 93 92 112 171 264 264 75 112 91 103 111 113 110 118 114 116
157 143 149 148 145 145 143 141 145 144 142 139 131 126 123 116 106 98 95 88 91 91 90 86 86 102 118 108 115 131 190 265 97 108 120 115 112 121 109 107 111 114 118
163 143 153 151 157 158 153 148 151 150 148 145 144 153 161 160 155 150 143 111 103 91 93 96 133 180 169 148 148 184 208 220 232 142 112 110 126 135 125 117 117 111 114
153 159 162 159 159 155 154 152 155 157 159 163 175 206 193 206 172 149 100 118 144 141 140 172 215 190 182 192 180 191 204 239 108 110 92 124 134 148 139 138 130 126 121
159 167 166 161 160 161 162 152 170 170 178 192 191 212 170 196 134 104 130 158 175 209 215 212 344 284 224 188 179 182 231 244 127 118 108 124 142 156 156 152 145 143 139
167 171 166 159 164 170 152 170 179 176 176 179 201 237 225 92 174 178 163 179 187 205 234 54 240 302 24 14 17 157 187 201 146 105 122 138 145 170 160 161 163 159 150
180 174 173 160 170 180 162 182 185 182 190 185 182 224 230 27 314 93 238 191 204 190 117 145 239 67 30 349 340 32 90 26 46 109 127 145 157 167 174 174 181 176 170
184 178 175 164 170 180 201 192 206 204 202 188 150 179 271 172 124 77 264 71 126 107 317 20 57 40 100 264 296 336 104 53 6 116 129 150 172 176 185 178 188 187 189
180 179 174 174 174 195 202 220 223 204 184 233 179 164 206 272 138 198 142 187 149 92 107 10 354 115 324 90 89 293 59 109 46 63 135 153 171 174 175 192 193 193 196
178 179 176 181 179 194 199 204 214 205 228 196 217 153 199 217 161 358 232 22 309 97 180 192 14 262 214 138 177 142 95 79 155 166 117 147 156 177 170 181 200 207 206
181 180 187 191 181 188 194 194 214 225 212 216 199 176 196 203 241 197 232 230 48 66 230 35 8 291 158 224 44 287 98 90 130 173 122 66 151 136 171 165 180 203 215
186 181 191 193 188 187 198 202 210 214 224 214 211 198 175 202 207 247 193 354 195 208 182 217 302 246 114 169 187 176 120 136 213 106 87 202 142 157 131 162 156 172 186
185 183 190 194 198 187 191 209 205 216 209 223 210 209 160 202 207 224 218 179 249 274 139 64 340 31 339 15 340 70 109 203 171 125 162 150 133 166 148 156 155 151 181
185 188 190 196 191 189 198 199 209 210 200 210 217 207 194 214 202 212 247 180 229 165 108 209 203 173 243 107 197 158 90 160 230 190 80 96 125 131 23 88 148 150 144
189 188 187 194 190 195 199 206 210 211 208 207 210 196 212 209 216 223 229 191 210 171 147 201 284 290 110 185 260 174 159 157 177 144 75 77 0 112 121 74 83 135 172
191 187 188 191 192 192 211 200 206 215 235 200 213 204 202 216 218 221 208 236 162 274 149 174 204 274 137 180 305 325 10 179 152 150 165 106 229 109 107 103 79 80 133
194 189 189 187 195 193 204 201 203 207 206 214 209 211 200 202 218 208 211 202 203 215 129 163 204 277 272 177 189 253 4 342 54 200 166 139 220 187 122 206 132 133 167
190 189 191 186 191 195 192 223 195 214 212 208 216 212 206 176 208 215 192 205 202 226 150 167 201 224 180 283 199 168 184 256 282 316 218 170 192 205 156 231 191 152 189
191 192 188 185 191 198 193 205 210 199 226 211 206 206 205 213 193 217 210 193 215 218 214 184 199 196 250 217 281 185 187 200 178 224 221 178 192 199 198 180 186 237 193